Location: Bennemühlen
(52.5740°N, 9.7135°E)
Time: 16:08:11
(UTC+00:00)

SR - Pass Details

Date: 25 February 2026
Orbit: 572 x 848 km, 66.7° (Epoch: 8 March)

Event Time Altitude Azimuth Distance (km) Brightness Sun altitude
Exits shadow 01:41:55 11° 60° (ENE) 1,960 ? -39.5°
Drops below altitude 10° 01:42:03 10° 59° (ENE) 2,003 ? -39.4°
Sets 01:44:44 0° 46° (NE) 2,963 ? -39.2°
